G6RZA-13 Weather Reports


time (UTC)temp
C
wind
direction
speed
KPH
gust
KPH
rain 1hr
cm
rain 24hr
cm
rain mn
cm
humidity
%
barometer
mb
20260506095017 12 357 16.1 25.7 0.00 0.00 0.00 62 1013.4
20260506094020 12 355 11.3 22.5 0.00 0.00 0.00 62 1013.4
20260506093017 12 353 12.9 22.5 0.00 0.00 0.00 62 1013.3
20260506092018 12 358 12.9 24.1 0.00 0.00 0.00 63 1013.4
20260506091018 11 350 17.7 29.0 0.00 0.00 0.00 67 1013.4
20260506090018 11 1 12.9 24.1 0.00 0.00 0.00 68 1013.3
20260506085038 11 360 11.3 25.7 0.00 0.00 0.00 70 1013.3
20260506084018 11 355 14.5 24.1 0.00 0.00 0.00 71 1013.3
20260506083018 11 2 14.5 25.7 0.00 0.00 0.00 72 1013.2
20260506082018 11 346 12.9 25.7 0.00 0.00 0.00 74 1013.2
20260506081038 10 4 9.7 16.1 0.00 0.00 0.00 74 1013.1
20260506073022 10 342 12.9 20.9 0.00 0.00 0.00 79 1013.1
20260506072022 10 351 16.1 24.1 0.00 0.00 0.00 80 1013.1
20260506071022 9 353 9.7 16.1 0.00 0.00 0.00 82 1013.1
20260506070112 8 360 6.4 11.3 0.00 0.00 0.00 82 1013.1
20260506062017 9 355 9.7 17.7 0.00 0.00 0.00 84 1013.0
20260506061023 8 2 12.9 16.1 0.00 0.00 0.00 85 1013.0
20260506051018 8 7 8.0 9.7 0.00 0.00 0.00 85 1012.8
20260506045018 8 358 8.0 11.3 0.00 0.00 0.00 85 1012.7
20260506044036 8 359 9.7 11.3 0.00 0.00 0.00 84 1012.7
20260506043016 8 3 6.4 11.3 0.00 0.00 0.00 84 1012.7
20260506042018 8 354 9.7 16.1 0.00 0.00 0.00 84 1012.5
20260506041018 9 10 6.4 9.7 0.00 0.00 0.00 83 1012.5
20260506040018 9 358 6.4 11.3 0.00 0.00 0.00 83 1012.5
20260506035118 10 2 4.8 8.0 0.00 0.00 0.00 82 1012.5
20260506034018 10 1 4.8 11.3 0.00 0.00 0.00 82 1012.6
20260506033017 10 351 8.0 12.9 0.00 0.00 0.00 81 1012.5
20260506032017 10 354 6.4 9.7 0.00 0.00 0.00 81 1012.5
20260506031017 10 354 8.0 12.9 0.00 0.00 0.00 80 1012.5
20260506030018 10 360 6.4 12.9 0.00 0.00 0.00 80 1012.6
20260506025018 10 354 6.4 16.1 0.00 0.00 0.00 80 1012.6
20260506024017 10 14 6.4 11.3 0.00 0.00 0.00 80 1012.7
20260506023017 10 336 8.0 19.3 0.00 0.00 0.00 80 1012.6
20260506022038 10 352 8.0 9.7 0.00 0.00 0.00 80 1012.6
20260506021018 11 332 4.8 11.3 0.00 0.00 0.00 81 1012.6
20260506020018 11 357 8.0 12.9 0.00 0.00 0.00 81 1012.6
20260506015018 11 349 4.8 9.7 0.00 0.00 0.00 81 1012.6
20260506014018 11 358 6.4 11.3 0.00 0.00 0.00 80 1012.7
20260506013018 11 16 3.2 6.4 0.00 0.00 0.00 80 1012.6
20260506012018 11 12 9.7 12.9 0.00 0.00 0.00 80 1012.7
20260506011018 11 345 9.7 14.5 0.00 0.00 0.00 80 1012.7
20260506010018 11 1 3.2 9.7 0.00 0.00 0.00 79 1012.7
20260506005019 11 19 1.6 8.0 0.00 0.00 0.00 79 1012.7
20260506004019 11 357 4.8 9.7 0.00 0.00 0.00 79 1012.7
20260506003019 11 33 1.6 9.7 0.00 0.00 0.00 79 1012.8
20260506002019 11 10 4.8 12.9 0.00 0.00 0.00 78 1012.8
20260506001019 11 344 6.4 11.3 0.00 0.00 0.00 78 1012.8
20260506000019 11 348 4.8 12.9 0.00 0.00 0.00 78 1012.7
20260505235019 11 2 4.8 11.3 0.00 0.00 0.00 77 1012.7
20260505234019 11 8 3.2 9.7 0.00 0.00 0.00 77 1012.7
20260505233020 11 80 4.8 11.3 0.00 0.00 0.00 76 1012.7
20260505232020 11 6 4.8 11.3 0.00 0.00 0.00 76 1012.8
20260505231020 11 350 6.4 11.3 0.00 0.00 0.00 75 1012.8
20260505230020 11 1 6.4 12.9 0.00 0.00 0.00 74 1012.8
20260505225020 11 317 4.8 9.7 0.00 0.00 0.00 73 1012.8
20260505224016 11 352 3.2 22.5 0.00 0.00 0.00 73 1012.8
20260505223020 11 20 4.8 9.7 0.00 0.00 0.00 72 1012.7
20260505222041 11 325 3.2 6.4 0.00 0.00 0.00 71 1012.8
20260505221021 11 298 3.2 4.8 0.00 0.00 0.00 70 1012.8
20260505220021 11 244 3.2 8.0 0.00 0.00 0.00 70 1012.9
20260505215101 11 38 3.2 8.0 0.00 0.00 0.00 70 1012.9
20260505214021 11 104 4.8 8.0 0.00 0.00 0.00 69 1012.8
20260505213021 12 358 1.6 4.8 0.00 0.00 0.00 69 1012.8
20260505212021 12 10 4.8 9.7 0.00 0.00 0.00 69 1012.8
20260505211041 12 351 4.8 8.0 0.00 0.00 0.00 68 1012.8
20260505210021 12 16 3.2 9.7 0.00 0.00 0.00 67 1012.9
20260505205021 12 35 3.2 9.7 0.00 0.00 0.00 67 1012.8
20260505204022 12 28 6.4 9.7 0.00 0.00 0.00 66 1012.8
20260505203022 12 14 3.2 8.0 0.00 0.00 0.00 66 1012.8
20260505202022 12 16 3.2 6.4 0.00 0.00 0.00 66 1012.7
20260505201042 12 106 0.0 1.6 0.00 0.00 0.00 66 1012.6
20260505200022 12 88 0.0 1.6 0.00 0.00 0.00 67 1012.6
20260505195022 12 358 3.2 8.0 0.00 0.00 0.00 68 1012.4
20260505194022 12 45 1.6 6.4 0.00 0.00 0.00 68 1012.3
20260505193023 13 65 3.2 9.7 0.00 0.00 0.00 67 1012.2
20260505192023 13 8 1.6 3.2 0.00 0.00 0.00 65 1012.1
20260505191023 13 17 3.2 4.8 0.00 0.00 0.00 64 1012.1
20260505190023 13 21 1.6 4.8 0.00 0.00 0.00 62 1012.0
20260505185043 14 21 4.8 8.0 0.00 0.00 0.00 61 1012.0
20260505184023 14 360 3.2 8.0 0.00 0.00 0.00 61 1011.9
20260505183023 14 357 3.2 6.4 0.00 0.00 0.00 59 1011.9
20260505182024 14 20 3.2 8.0 0.00 0.00 0.00 57 1011.9
20260505181024 15 15 3.2 8.0 0.00 0.00 0.00 56 1011.9
20260505180024 15 350 3.2 11.3 0.00 0.00 0.00 54 1011.8
20260505175024 15 35 0.0 3.2 0.00 0.00 0.00 54 1011.9
20260505174024 15 92 1.6 3.2 0.00 0.00 0.00 53 1011.9
20260505173024 15 58 3.2 6.4 0.00 0.00 0.00 52 1012.0
20260505172025 15 51 3.2 11.3 0.00 0.00 0.00 51 1011.9
20260505171024 15 75 3.2 6.4 0.00 0.00 0.00 52 1011.9
20260505170024 16 245 4.8 12.9 0.00 0.00 0.00 51 1012.0
20260505165025 16 90 1.6 9.7 0.00 0.00 0.00 50 1011.9
20260505164021 16 118 6.4 22.5 0.00 0.00 0.00 49 1011.9
20260505163041 16 92 4.8 14.5 0.00 0.00 0.00 49 1011.9
20260505162025 17 113 3.2 9.7 0.00 0.00 0.00 47 1011.9
20260505161021 17 250 6.4 16.1 0.00 0.00 0.00 48 1011.8
20260505153026 17 354 6.4 12.9 0.00 0.00 0.00 48 1011.9
20260505152021 17 312 9.7 20.9 0.00 0.00 0.00 48 1011.9
20260505151022 17 218 4.8 14.5 0.00 0.00 0.00 49 1011.9
20260505124017 16 346 3.2 8.0 0.00 0.00 0.00 56 1012.4
20260505123017 16 315 6.4 22.5 0.00 0.00 0.00 58 1012.5
20260505122017 16 222 6.4 16.1 0.00 0.00 0.00 58 1012.5
20260505121024 16 348 9.7 24.1 0.00 0.00 0.00 57 1012.5
20260505120023 16 316 6.4 14.5 0.00 0.00 0.00 57 1012.6
20260505115129 16 37 6.4 22.5 0.00 0.00 0.00 59 1012.7
20260505114017 15 11 8.0 22.5 0.00 0.00 0.00 61 1012.8
20260505113038 15 163 6.4 11.3 0.00 0.00 0.00 60 1012.8
20260505112018 15 313 6.4 14.5 0.00 0.00 0.00 61 1012.9
20260505111018 15 49 6.4 14.5 0.00 0.00 0.00 60 1013.0
20260505102048 15 144 6.4 11.3 0.00 0.00 0.00 62 1013.0
20260505101029 15 340 3.2 8.0 0.00 0.00 0.00 65 1013.0
20260505100059 15 348 9.7 27.4 0.00 0.00 0.00 65 1013.0